Location: Unspecified
(49.2170°N, 0.0000°E)
Time: 08:40:45
(UTC+00:00)

Vanguard 3 - Visible Passes

Search period start: 24 January 2021 00:00
Search period end: 03 February 2021 00:00
Orbit: 508 x 3261 km, 33.3° (Epoch: 23 January)

Date Brightness Start Highest point End Pass type
(mag) Time Alt. Az. Time Alt. Az. Time Alt. Az.
24 Jan 9.5 04:15:09 24° S 04:17:16 27° SSE 04:26:32 10° ESE visible
24 Jan 10.0 06:20:41 10° WSW 06:29:02 35° S 06:42:09 10° SE visible
25 Jan 10.0 03:05:17 17° SE 03:05:17 17° SE 03:09:19 10° ESE visible
25 Jan 9.5 05:09:51 20° SW 05:14:31 32° S 05:25:27 10° ESE visible
26 Jan 9.4 03:59:59 25° SSE 04:00:32 25° SSE 04:08:42 10° ESE visible
26 Jan 9.8 06:04:38 10° WSW 06:12:07 31° S 06:23:47 10° SE visible
27 Jan 10.2 02:50:05 13° SE 02:50:05 13° SE 02:51:50 10° ESE visible
27 Jan 9.3 04:54:39 23° SSW 04:57:46 29° S 05:07:23 10° ESE visible
27 Jan 10.1 07:02:12 10° WSW 07:09:55 26° SSW 07:21:12 10° SE visible
28 Jan 9.5 03:44:45 23° SSE 03:44:45 23° SSE 03:50:57 10° ESE visible
28 Jan 9.7 05:49:19 12° SW 05:55:19 27° S 06:05:25 10° SE visible
29 Jan 9.2 04:39:26 24° SSW 04:41:08 25° S 04:49:22 10° SE visible
29 Jan 10.0 06:46:27 10° WSW 06:53:02 22° SSW 07:02:22 10° SSE visible
30 Jan 9.7 03:29:33 18° SE 03:29:33 18° SE 03:33:17 10° ESE visible
30 Jan 9.5 05:34:07 14° SW 05:38:38 23° S 05:47:01 10° SE visible
31 Jan 9.3 04:24:14 22° S 04:24:35 22° S 04:31:22 10° SE visible
31 Jan 9.9 06:31:01 10° SW 06:36:17 17° SSW 06:43:20 10° SSE visible
01 Feb 10.0 03:14:23 13° SE 03:14:23 13° SE 03:15:42 10° SE visible
01 Feb 9.5 05:18:56 15° SW 05:22:02 19° S 05:28:33 10° SSE visible
02 Feb 9.5 04:09:06 18° S 04:09:06 18° S 04:13:23 10° SE visible
02 Feb 10.0 06:16:10 10° SW 06:19:37 13° SSW 06:23:49 10° S visible
